EHI
0 0 0 0 0 0 0 0 0 0 0 0 0 0 0 0 0 0 0 0 0 0 0 0 0 0 0 0 0 0 0 0 0 0 0 0 0 0
0 0 0 0 0 0 0 0 0 0 0 0 0 0 0 0 0 0 0 0 0 0 0 0 0 0 0 0 0 0 0 0 0 0 0 0 0 0
0 0 0 0 0 0 0 0 0 0 0 0 0 0 0 0 0 0 0 0 0 0 0 0 0 0 0 0 0 0 0 0 0 0 0 0 0 0
0 0 0 0 0 0 0 0 0 0 0 0 0 0 0 0 0 0 0 0 0 0 0 0 0 0 0 0 0 0 0 0 0 0 0 0 0 0
0 0 0 0 0 0 0 0 0 0 0 0 0 0 0 0 0 0 0 0 0 0 0 0 0 0 0 0 0 0 0 0 0 0 0 0 0 0
0 0 0 0 0 0 0 0 0 0 0 0 0 0 0 0 0 0 0 0 0 0 0 0 0 0 0 0 0 0 0 0 0 0 0 0 0 0
0 0 0 0 0 0 0 0 0 0 0 0 0 0 0 0 0 0 0 0 0 0 0 0 0 0 0 0 0 0 0 0 0 0 0 0 0 0
0 0 0 0 0 0 0 0 0 0 0 0 0 0 0 0 0 0 0 0 0 0 0 0 0 0 0 0 0 0 0 0 0 0 0 0 0 0
0 0 0 0 0 0 0 0 0 0 0 0 0 0 0 0 0 0 0 0 0 0 0 0 0 0 0 0 0 0 0 0 0 0 0 0 0 0
0 0 0 0 0 0 0 0 0 0 0 0 0 0 0 0 0 0 0 0 0 0 0 0 0 0 0 0 0 0 0 0 0 0 0 0 0 0
0 0 0 0 0 0 0 0 0 0 0 0 0 0 0 0 0 0 0 0 0 0 0 0 0 0 0 0 0 0 0 0 0 0 0 0 0 0
0 0 0 0 0 0 0 0 0 0 0 0 0 0 0 0 0 0 0 0 0 0 0 0 0 0 0 0 0 0 0 0 0 0 0 0 0 0
0 0 0 0 0 0 0 0 0 0 0 0 0 0 0 0 0 0 0 0 0 0 0 0 0 0 0 0 0 0 0 0 0 0 0 0 0 0
0 0 0 0 0 0 0 0 0 0 0 0 0 0 0 0 0 0 0 0 0 0 0 0 0 0 0 0 0 0 0 0 0 0 0 0 0 0
0 0 0 0 0 0 0 0 0 0 0 0 0 0 0 0 0 0 0 0 0 0 0 0 0 0 0 0 0 0 0 0 0 0 0 0 0 0
0 0 0 0 0 0 0 0 0 0 0 0 0 0 0 0 0 0 0 0 0 0 0 0 0 0 0 0 0 0 0 0 0 0 0 0 0 0
0 0 0 0 0 0 0 0 0 0 0 0 0 0 0 0 0 0 0 0 0 0 0 0 0 0 0 0 0 0 0 0 0 0 0 0 0 0
0 0 0 0 0 0 0 0 0 0 0 0 0 0 0 0 0 0 0 0 0 0 0 0 0 0 0 0 0 0 0 0 0 0 0 0 0 0
0 0 0 0 0 0 0 0 0 0 0 0 0 0 0 0 0 0 0 0 0 0 0 0 0 0 0 0 0 0 0 0 0 0 0 0 0 0
0 0 0 0 0 0 0 0 0 0 0 0 0 0 0 0 0 0 0 0 0 0 0 0 0 0 0 0 0 0 0 0 0 0 0 0 0 0
0 0 0 0 0 0 0 0 0 0 0 0 0 0 0 0 0 0 0 0 0 0 0 0 0 0 0 0 0 0 0 0 0 0 0 0 0 0
0 0 0 0 0 0 0 0 0 0 0 0 0 0 0 0 0 0 0 0 0 0 0 0 0 0 0 0 0 0 0 0 0 0 0 0 0 0
0 0 0 0 0 0 0 0 0 0 0 0 0 0 0 0 0 0 0 0 0 0 0 0 0 0 0 0 0 0 0 0 0 0 0 0 0 0
Wind_Speed
10 11 10 9 9 9 10 10 12 15 14 13 11 10 10 11 14 15 16 20 23 24 25 25 25 26 26 26 26 27 27 27 27 27 27 27 27 27
9 11 12 10 9 9 10 10 11 13 16 11 12 13 13 12 16 17 17 23 24 25 25 25 25 26 26 26 26 26 27 27 26 27 27 27 27 27
11 12 13 13 11 10 10 10 11 12 16 15 13 13 16 16 15 15 15 15 14 22 24 25 25 25 25 26 26 26 26 26 26 26 26 26 27 27
13 14 14 11 14 12 11 12 12 13 14 18 15 13 16 16 16 16 14 13 14 19 23 24 25 25 25 25 25 25 25 25 25 25 25 26 26 26
14 14 15 14 15 13 13 13 12 12 13 14 16 13 13 13 15 15 16 14 14 15 20 22 23 24 25 25 25 25 24 24 24 24 24 24 24 24
14 15 15 15 16 15 13 14 14 14 14 14 14 13 13 14 13 12 12 11 11 12 15 16 19 22 23 24 23 23 23 23 23 23 23 23 23 23
15 15 16 17 20 17 14 14 14 13 12 13 13 13 13 12 11 11 12 12 12 11 12 11 12 11 13 16 19 20 20 21 21 22 22 21 21 21
16 16 16 17 19 22 24 24 21 17 15 14 13 14 16 14 12 11 12 12 12 9 10 11 10 11 11 11 16 19 20 21 21 21 21 21 20 21
16 15 13 13 18 16 18 22 22 24 24 19 17 17 17 15 15 15 13 13 13 11 10 12 11 12 11 12 19 20 21 21 21 21 21 21 21 21
16 16 16 16 15 16 16 16 17 17 19 16 15 17 17 16 15 15 15 14 13 11 10 11 11 11 11 10 16 19 20 20 19 19 20 20 19 19
16 15 16 16 20 22 18 17 17 16 18 22 24 23 26 26 20 12 10 10 11 9 8 8 10 10 10 10 11 15 16 16 16 17 17 16 16 16
13 14 18 19 21 22 17 16 17 16 15 15 17 18 17 17 20 13 9 10 10 9 7 6 8 8 8 7 7 7 8 11 12 13 13 13 13 9
12 11 11 19 22 23 22 16 18 18 14 13 12 12 11 10 10 9 8 8 10 10 7 6 7 8 8 8 8 7 7 6 6 6 8 10 10 9
13 12 13 21 23 25 20 19 23 20 11 10 10 10 9 9 8 8 8 9 10 11 10 9 8 8 9 9 8 6 6 6 6 6 5 6 8 10
13 19 23 25 24 19 19 21 18 11 9 10 10 10 9 8 8 7 8 8 10 10 9 10 9 8 8 9 8 7 7 6 5 5 4 4 4 4
13 17 23 23 19 18 16 12 9 8 9 9 10 9 8 8 8 7 7 7 7 7 7 8 9 9 9 9 8 8 7 5 4 4 4 4 3 3
14 12 11 10 10 9 8 8 8 8 8 8 8 8 8 8 8 7 7 7 7 8 6 5 5 6 8 8 7 7 6 6 5 4 4 4 3 3
18 12 11 10 9 8 8 8 8 8 8 8 8 8 8 8 8 7 7 7 8 7 6 5 4 5 5 6 8 7 6 5 4 3 4 4 4 3
14 11 10 10 9 9 9 9 9 8 7 8 8 8 8 8 8 8 7 7 7 7 6 5 5 5 6 5 3 6 5 4 3 3 3 3 3 2
10 10 10 10 9 9 9 9 8 8 8 8 8 8 8 8 8 8 7 8 7 7 6 5 5 5 6 5 3 3 6 5 4 3 3 2 2 3
10 10 10 10 10 9 9 9 9 8 9 8 8 9 8 8 8 8 8 10 9 7 7 6 4 6 5 4 4 4 3 4 5 3 3 2 2 2
10 10 10 10 10 9 9 9 9 9 9 8 8 8 8 8 8 9 8 7 7 6 7 5 4 4 4 5 5 4 3 2 3 5 5 4 2 2
10 10 10 10 9 9 9 9 11 9 9 8 8 8 8 8 7 7 8 7 7 7 6 5 4 4 4 5 5 4 4 3 2 2 2 4 5 4
Wind_Direction
274 273 272 272 270 270 270 272 280 289 290 292 291 289 287 284 286 286 286 288 289 288 287 286 285 284 284 283 281 280 279 278 276 274 272 272 270 270
273 273 273 273 272 269 267 268 268 275 283 287 289 288 288 284 284 285 285 288 286 285 285 286 285 284 283 282 281 280 279 277 275 273 271 270 268 268
274 273 273 274 274 271 271 269 269 270 277 284 285 288 288 286 285 284 284 285 284 283 284 285 285 285 283 282 281 280 279 278 276 274 272 271 269 268
277 276 275 275 273 272 271 270 271 271 276 284 288 289 288 289 286 285 284 282 281 283 284 284 284 283 282 282 280 279 278 277 277 276 274 272 270 270
277 276 276 276 275 273 273 273 273 274 274 279 284 285 285 284 285 282 281 279 281 282 283 282 282 282 282 282 280 278 278 277 276 275 274 273 272 271
275 274 273 273 274 276 276 275 276 276 275 275 279 281 281 282 280 282 282 281 280 282 281 281 282 283 281 279 279 278 277 278 276 274 273 271 270 269
277 274 272 271 272 273 273 275 276 274 275 275 277 280 280 282 281 282 282 284 281 282 283 282 283 281 283 280 277 276 275 274 274 273 272 271 268 266
279 278 277 275 274 274 274 275 276 278 279 278 279 279 282 283 285 283 281 282 284 282 282 283 284 281 280 278 278 278 277 275 273 272 270 270 269 266
279 279 278 276 279 277 279 280 278 276 274 275 277 278 281 283 284 282 276 277 278 283 284 280 280 279 278 275 276 277 277 275 273 271 271 269 268 265
277 277 278 279 278 280 280 278 276 275 274 273 271 274 277 279 276 276 278 278 276 272 270 276 280 280 282 281 280 278 279 279 276 272 270 268 267 264
278 275 275 276 278 280 280 279 279 278 278 276 275 277 278 280 279 279 276 276 279 278 271 273 281 285 286 283 280 278 279 281 280 275 271 270 268 265
280 277 275 276 279 281 281 281 281 282 284 285 283 281 280 280 281 275 274 277 281 284 276 272 281 290 288 280 285 289 282 279 280 280 277 273 271 265
283 281 279 281 282 283 283 281 280 286 287 287 286 282 277 271 268 266 263 265 272 273 279 279 279 278 275 285 288 285 283 283 281 278 273 270 270 267
283 282 282 284 284 284 284 281 286 291 286 284 282 279 277 275 274 273 268 263 262 268 274 274 273 274 276 278 280 281 280 282 282 279 275 270 264 260
282 284 287 288 288 287 283 284 288 285 283 280 279 280 281 283 284 281 273 263 261 260 261 260 261 264 263 269 275 279 283 280 276 273 269 264 262 253
285 286 288 286 283 280 281 281 277 275 276 277 281 283 285 283 278 277 275 274 272 270 256 255 258 259 261 263 267 271 269 268 269 273 272 268 264 257
291 286 281 281 275 271 273 274 273 274 275 275 276 278 279 279 278 277 275 272 270 275 276 266 257 256 259 263 263 262 264 262 258 256 258 262 256 247
294 286 283 283 280 279 279 279 277 276 276 275 275 275 277 278 279 276 273 269 269 272 275 277 276 273 259 243 237 257 261 261 258 247 243 253 254 247
288 282 282 282 281 279 277 277 277 277 277 275 274 273 273 273 275 274 271 269 268 269 272 272 269 268 272 272 229 221 250 263 255 245 242 248 260 270
279 280 281 281 280 279 277 277 277 276 273 272 272 270 269 270 271 272 270 269 271 271 269 263 260 263 272 283 285 259 244 256 253 247 240 244 259 273
283 281 280 280 279 276 275 274 274 274 273 272 271 270 268 266 267 270 272 271 268 266 267 267 267 272 274 263 257 254 252 245 254 252 241 237 242 240
282 281 281 279 278 275 273 271 271 271 270 266 267 267 265 263 264 266 267 269 266 262 267 271 266 256 246 248 258 264 262 246 240 241 245 253 262 260
282 282 281 281 277 275 271 268 267 268 267 266 266 265 263 262 262 262 262 262 263 259 260 264 260 249 248 250 254 256 254 249 235 221 221 228 240 256